Location: Krakow
(50.0830°N, 19.9170°E)
Time: 05:26:39
(UTC+02:00)

A-11 Canister half - Pass Details

Date: 04 June 2024
Orbit: 1515 x 1685 km, 47.2° (Epoch: 14 June)

Event Time Altitude Azimuth Distance (km) Brightness Sun altitude
Rises 00:12:47 0° 237° (WSW) 4,850 11.4 -17.2°
Reaches altitude 10° 00:16:00 10° 234° (SW) 3,843 10.8 -17.3°
Maximum altitude 00:25:30 60° 157° (SSE) 1,770 9.0 -17.4°
Drops below altitude 10° 00:34:41 10° 81° (E) 3,723 11.1 -17.5°
Sets 00:37:44 0° 78° (ENE) 4,691 11.7 -17.5°
